Location: Oberkirch
(48.5323°N, 8.0787°E)
Time: 15:00:06
(UTC+00:00)

Tiros 1 despin weight - Pass Details

Date: 10 February 2026
Orbit: 556 x 593 km, 48.2° (Epoch: 5 March)

Event Time Altitude Azimuth Distance (km) Brightness Sun altitude
Rises 20:07:59 0° 269° (W) 2,734 ? -34.4°
Reaches altitude 10° 20:10:13 10° 269° (W) 1,842 ? -34.8°
Enters shadow 20:10:55 15° 269° (W) 1,569 ? -34.9°
